Weather in Mongoy

Russia / Republic of Buryatia     53°57′32″N   113°51′34″E
temp.,
°C
wind,
m/s
gust,
m/s
humid.,
%
clouds,
%
prec.,
mm/h
press.,
hPa
HPBL,
m
8 may, sat
sat823:00+1nw116474 0.1 101113
02:00−1w11779 0.1 101212
05:00−3w11824 0.0 101312
08:00+5nw13464 0.0 1010681
11:00+10n2425100 0.0 10072871
14:00+10n2326100 0.0 10062476
17:00+10nne3428100 0.0 10052410
20:00+4ene116177 0.1 100815
9 may, sun
sun923:00+2nw017779 0.1 101010
02:000nne118315 0.1 101011
05:00−1nne119588 0.0 101112
08:00+4ene227299 0.0 1010582
11:00+9ne2244100 0.1 10071485
14:00+10ene2232100 0.4 10062088
17:00+10n0236100 0.1 10051952
20:00+5s2367100 0.2 100880
10 may, mon
mon1023:00+3wnw1175100 0.0 100910
02:00+2ne008026 0.0 101010
05:000ne118790 0.0 101112
08:00+6ene245491 0.0 1009581
11:00+11ese2334100 0.0 10072124
14:00+10se2340100 0.0 10061791
17:00+11se4544100 0.1 10051519
20:00+6e2368100 0.1 100758
11 may, tue
tue1123:00+4nne228173 0.1 100835
02:00+3nne31078100 0.1 1008274
05:00+2nne31275100 0.0 1008510
08:00+7ne51052100 0.0 1007858
11:00+11ne5830100 0.0 10042334
14:00+13ne5724100 0.0 10022778
17:00+13nne4629100 0.0 10022643
20:00+8nnw255369 0.2 1005151
12 may, wed
wed1223:00+3nw117827 0.1 100713
02:00+3wnw1175100 0.1 100614
05:00+1w118045 0.0 100718
08:00+8nw35465 0.0 10051203
11:00+12nw572567 0.0 10022759
14:00+13nw5917100 0.0 10013470
17:00+12nw562073 0.0 10012909
20:00+7nw373921 0.0 1004240